| time (UTC) | temp F | wind direction | speed MPH | gust MPH | rain 1hr in | rain 24hr in | rain mn in | humidity % | barometer mb |
| 20260505004904 | 60 | 34 | 0.0 | 0.0 | 0.00 | 0.00 | 0.00 | 63 | 1014.4 |
| 20260505004405 | 60 | 34 | 0.0 | 0.0 | 0.00 | 0.00 | 0.00 | 64 | 1014.4 |
| 20260505003405 | 59 | 50 | 0.0 | 0.0 | 0.00 | 0.00 | 0.00 | 68 | 1014.4 |
| 20260505001904 | 58 | 150 | 0.0 | 0.0 | 0.00 | 0.00 | 0.00 | 76 | 1014.5 |
| 20260505001404 | 58 | 150 | 0.0 | 0.0 | 0.00 | 0.00 | 0.00 | 78 | 1014.5 |
| 20260505000905 | 58 | 150 | 0.0 | 0.0 | 0.00 | 0.00 | 0.00 | 78 | 1014.5 |
| 20260505000405 | 58 | 150 | 0.0 | 0.0 | 0.00 | 0.00 | 0.00 | 78 | 1014.5 |
| 20260504234904 | 59 | 150 | 0.0 | 0.0 | 0.00 | 0.00 | 0.00 | 79 | 1014.5 |
| 20260504234405 | 59 | 150 | 0.0 | 0.0 | 0.00 | 0.00 | 0.00 | 79 | 1014.5 |
| 20260504233905 | 59 | 150 | 0.0 | 0.0 | 0.00 | 0.00 | 0.00 | 78 | 1014.4 |
| 20260504233404 | 59 | 150 | 0.0 | 0.0 | 0.00 | 0.00 | 0.00 | 78 | 1014.4 |
| 20260504231405 | 60 | 151 | 0.0 | 0.0 | 0.00 | 0.00 | 0.00 | 75 | 1014.4 |
| 20260504230904 | 60 | 151 | 0.0 | 0.0 | 0.00 | 0.00 | 0.00 | 75 | 1014.4 |
| 20260504224905 | 60 | 151 | 0.0 | 0.0 | 0.00 | 0.00 | 0.00 | 75 | 1014.4 |
| 20260504223905 | 60 | 151 | 0.0 | 0.0 | 0.00 | 0.00 | 0.00 | 74 | 1014.3 |
| 20260504221404 | 62 | 148 | 0.0 | 0.0 | 0.00 | 0.00 | 0.00 | 71 | 1014.2 |
| 20260504220904 | 63 | 148 | 0.0 | 0.0 | 0.00 | 0.00 | 0.00 | 69 | 1014.2 |
| 20260504220404 | 63 | 274 | 0.0 | 3.0 | 0.00 | 0.00 | 0.00 | 67 | 1014.2 |
| 20260504214904 | 63 | 267 | 1.0 | 3.0 | 0.00 | 0.00 | 0.00 | 67 | 1014.1 |
| 20260504214404 | 63 | 261 | 3.0 | 6.0 | 0.00 | 0.00 | 0.00 | 67 | 1014.1 |
| 20260504213904 | 63 | 259 | 3.0 | 8.0 | 0.00 | 0.00 | 0.00 | 66 | 1014.1 |
| 20260504213404 | 63 | 266 | 1.0 | 8.0 | 0.00 | 0.00 | 0.00 | 67 | 1014.0 |
| 20260504211405 | 63 | 253 | 0.0 | 5.0 | 0.00 | 0.00 | 0.00 | 65 | 1014.2 |
| 20260504210904 | 63 | 251 | 0.0 | 5.0 | 0.00 | 0.00 | 0.00 | 65 | 1014.1 |
| 20260504210404 | 64 | 263 | 2.0 | 6.0 | 0.00 | 0.00 | 0.00 | 65 | 1014.1 |
| 20260504204905 | 64 | 259 | 0.0 | 3.0 | 0.00 | 0.00 | 0.00 | 64 | 1014.0 |
| 20260504204405 | 64 | 238 | 0.0 | 5.0 | 0.00 | 0.00 | 0.00 | 63 | 1013.8 |
| 20260504203904 | 64 | 232 | 1.0 | 7.0 | 0.00 | 0.00 | 0.00 | 63 | 1013.7 |
| 20260504201404 | 65 | 264 | 5.0 | 12.0 | 0.00 | 0.00 | 0.00 | 61 | 1013.4 |
| 20260504200905 | 65 | 263 | 5.0 | 9.0 | 0.00 | 0.00 | 0.00 | 61 | 1013.4 |
| 20260504200405 | 65 | 261 | 3.0 | 12.0 | 0.00 | 0.00 | 0.00 | 61 | 1013.3 |
| 20260504193904 | 66 | 247 | 5.0 | 12.0 | 0.00 | 0.00 | 0.00 | 59 | 1012.9 |
| 20260504191904 | 67 | 250 | 7.0 | 12.0 | 0.00 | 0.00 | 0.00 | 57 | 1012.8 |
| 20260504191404 | 67 | 246 | 5.0 | 14.0 | 0.00 | 0.00 | 0.00 | 57 | 1012.8 |
| 20260504190904 | 67 | 249 | 4.0 | 12.0 | 0.00 | 0.00 | 0.00 | 57 | 1012.7 |
| 20260504190404 | 67 | 245 | 5.0 | 14.0 | 0.00 | 0.00 | 0.00 | 57 | 1012.7 |
| 20260504184904 | 68 | 241 | 6.0 | 15.0 | 0.00 | 0.00 | 0.00 | 56 | 1012.5 |
| 20260504184404 | 68 | 235 | 4.0 | 10.0 | 0.00 | 0.00 | 0.00 | 55 | 1012.5 |
| 20260504183404 | 69 | 243 | 5.0 | 17.0 | 0.00 | 0.00 | 0.00 | 54 | 1012.3 |
| 20260504181905 | 69 | 249 | 5.0 | 13.0 | 0.00 | 0.00 | 0.00 | 55 | 1012.3 |
| 20260504181404 | 70 | 237 | 7.0 | 16.0 | 0.00 | 0.00 | 0.00 | 54 | 1012.3 |
| 20260504180904 | 70 | 251 | 6.0 | 13.0 | 0.00 | 0.00 | 0.00 | 54 | 1012.3 |
| 20260504180405 | 70 | 252 | 5.0 | 16.0 | 0.00 | 0.00 | 0.00 | 55 | 1012.3 |
| 20260504174904 | 70 | 241 | 8.0 | 16.0 | 0.00 | 0.00 | 0.00 | 54 | 1012.2 |
| 20260504174405 | 71 | 225 | 5.0 | 12.0 | 0.00 | 0.00 | 0.00 | 54 | 1012.2 |
| 20260504173904 | 71 | 237 | 6.0 | 14.0 | 0.00 | 0.00 | 0.00 | 52 | 1012.2 |
| 20260504173404 | 71 | 223 | 6.0 | 17.0 | 0.00 | 0.00 | 0.00 | 53 | 1012.2 |
| 20260504171904 | 71 | 204 | 9.0 | 18.0 | 0.00 | 0.00 | 0.00 | 53 | 1012.1 |
| 20260504171405 | 71 | 213 | 7.0 | 12.0 | 0.00 | 0.00 | 0.00 | 53 | 1012.3 |
| 20260504170905 | 71 | 225 | 7.0 | 20.0 | 0.00 | 0.00 | 0.00 | 53 | 1012.2 |
| 20260504170405 | 72 | 212 | 9.0 | 17.0 | 0.00 | 0.00 | 0.00 | 52 | 1012.2 |
| 20260504160404 | 75 | 252 | 5.0 | 12.0 | 0.00 | 0.00 | 0.00 | 35 | 1012.1 |
| 20260504150905 | 74 | 245 | 0.0 | 6.0 | 0.00 | 0.00 | 0.00 | 35 | 1012.5 |
| 20260504150404 | 74 | 252 | 3.0 | 17.0 | 0.00 | 0.00 | 0.00 | 36 | 1012.7 |
| 20260504140904 | 73 | 233 | 5.0 | 15.0 | 0.00 | 0.00 | 0.00 | 38 | 1013.2 |
| 20260504140404 | 73 | 231 | 5.0 | 13.0 | 0.00 | 0.00 | 0.00 | 37 | 1013.3 |
| 20260504110405 | 68 | 256 | 2.0 | 10.0 | 0.00 | 0.00 | 0.00 | 47 | 1014.7 |
| 20260504100404 | 67 | 287 | 5.0 | 9.0 | 0.00 | 0.00 | 0.00 | 49 | 1014.8 |
| 20260504081904 | 64 | 282 | 0.0 | 0.0 | 0.00 | 0.00 | 0.00 | 69 | 1014.8 |
| 20260504080905 | 63 | 324 | 1.0 | 3.0 | 0.00 | 0.00 | 0.00 | 71 | 1014.8 |
| 20260504080405 | 63 | 278 | 0.0 | 5.0 | 0.00 | 0.00 | 0.00 | 71 | 1014.8 |
| 20260504050404 | 58 | 0 | 0.0 | 0.0 | 0.00 | 0.00 | 0.00 | 84 | 1013.3 |
| 20260504044904 | 58 | 0 | 0.0 | 0.0 | 0.00 | 0.00 | 0.00 | 85 | 1013.2 |
| 20260504044404 | 58 | 0 | 0.0 | 0.0 | 0.00 | 0.00 | 0.00 | 85 | 1013.2 |
| 20260504043905 | 58 | 0 | 0.0 | 0.0 | 0.00 | 0.00 | 0.00 | 85 | 1013.2 |
| 20260504043404 | 58 | 0 | 0.0 | 0.0 | 0.00 | 0.00 | 0.00 | 85 | 1013.1 |
| 20260504041904 | 58 | 0 | 0.0 | 0.0 | 0.00 | 0.00 | 0.00 | 85 | 1013.0 |
| 20260504041404 | 58 | 0 | 0.0 | 0.0 | 0.00 | 0.00 | 0.00 | 85 | 1013.0 |
| 20260504040904 | 58 | 0 | 0.0 | 0.0 | 0.00 | 0.00 | 0.00 | 85 | 1013.0 |
| 20260504040405 | 58 | 0 | 0.0 | 0.0 | 0.00 | 0.00 | 0.00 | 85 | 1013.0 |
| 20260504034904 | 58 | 0 | 0.0 | 0.0 | 0.00 | 0.00 | 0.00 | 86 | 1013.0 |
| 20260504033904 | 58 | 0 | 0.0 | 0.0 | 0.00 | 0.00 | 0.00 | 86 | 1013.0 |
| 20260504033404 | 58 | 0 | 0.0 | 0.0 | 0.00 | 0.00 | 0.00 | 85 | 1013.1 |
| 20260504031905 | 58 | 0 | 0.0 | 0.0 | 0.00 | 0.00 | 0.00 | 85 | 1013.1 |
| 20260504031405 | 58 | 0 | 0.0 | 0.0 | 0.00 | 0.00 | 0.00 | 86 | 1013.1 |
| 20260504030905 | 58 | 0 | 0.0 | 0.0 | 0.00 | 0.00 | 0.00 | 86 | 1013.1 |
| 20260504030404 | 58 | 0 | 0.0 | 0.0 | 0.00 | 0.00 | 0.00 | 86 | 1013.1 |
| 20260504024904 | 58 | 0 | 0.0 | 0.0 | 0.00 | 0.00 | 0.00 | 84 | 1013.0 |
| 20260504024404 | 58 | 0 | 0.0 | 0.0 | 0.00 | 0.00 | 0.00 | 84 | 1013.0 |
| 20260504023904 | 59 | 0 | 0.0 | 0.0 | 0.00 | 0.00 | 0.00 | 84 | 1012.9 |
| 20260504023404 | 59 | 0 | 0.0 | 0.0 | 0.00 | 0.00 | 0.00 | 84 | 1012.9 |
| 20260504021404 | 59 | 279 | 0.0 | 0.0 | 0.00 | 0.00 | 0.00 | 84 | 1012.9 |
| 20260504020404 | 59 | 264 | 0.0 | 1.0 | 0.00 | 0.00 | 0.00 | 84 | 1012.9 |
| 20260504014405 | 59 | 250 | 0.0 | 0.0 | 0.00 | 0.00 | 0.00 | 84 | 1012.9 |
| 20260504013404 | 59 | 186 | 0.0 | 0.0 | 0.00 | 0.00 | 0.00 | 84 | 1013.1 |
| 20260504011904 | 58 | 183 | 0.0 | 0.0 | 0.00 | 0.00 | 0.00 | 83 | 1013.1 |
| 20260504011404 | 58 | 183 | 0.0 | 0.0 | 0.00 | 0.00 | 0.00 | 83 | 1013.1 |